Terminal Aerodrome Forecast
Issued by NWS

Home | Current Version | Previous Version | Text Only | Print | Product List | Glossary On
Versions: 1 2 3 4 5 6 7 8 9 10 11 12 13 14 15 16 17 18 19 20 21 22 23 24 25 26 27 28 29 30
000
FTPA31 PHFO 202300
TAFMKK
TAF
PHMK 202332Z 2100/2124 04012G18KT P6SM FEW025 SCT045
     FM210500 04008KT P6SM FEW025 SCT045
     FM212000 05011G16KT P6SM FEW025 SCT045=

USA.gov is the U.S. government's official web portal to all federal, state and local government web resources and services.